Satellite-Ground Cal/Val Region Overpasses Predictions

Prediction of Satellite NPP Overpassing Cal/Val Region: PacNW

Region Location: (Latitude: 10.00, Longitude: 139.50) to (Latitude: 22.70, Longitude: 165.60).

Table of predicted overpasses for the next 14.0 days since TLE Epoch: 8/7/2015
Interval Starting Time Starting Location Ending Time Ending Location
1 08/08/2015 02:24:15 ( 10.04, 164.62) 08/08/2015 02:27:50 ( 22.66, 161.62)
2 08/08/2015 14:56:07 ( 22.66, 161.83) 08/08/2015 14:59:42 ( 10.04, 158.84)
3 08/09/2015 03:46:41 ( 10.01, 144.01) 08/09/2015 03:50:17 ( 22.69, 141.00)
4 08/09/2015 14:38:14 ( 18.60, 165.60) 08/09/2015 14:40:40 ( 10.02, 163.59)
5 08/09/2015 16:18:34 ( 22.69, 141.23) 08/09/2015 16:20:35 ( 15.59, 139.51)
6 08/10/2015 03:27:39 ( 10.03, 148.76) 08/10/2015 03:31:14 ( 22.66, 145.77)
7 08/10/2015 15:59:31 ( 22.67, 145.98) 08/10/2015 16:03:06 ( 10.05, 142.98)
8 08/11/2015 03:08:36 ( 10.05, 153.52) 08/11/2015 03:12:11 ( 22.68, 150.52)
9 08/11/2015 15:40:29 ( 22.65, 150.73) 08/11/2015 15:44:04 ( 10.03, 147.74)
10 08/12/2015 02:49:33 ( 10.02, 158.28) 08/12/2015 02:53:09 ( 22.70, 155.27)
11 08/12/2015 15:21:25 ( 22.69, 155.50) 08/12/2015 15:25:01 ( 10.01, 152.49)
12 08/13/2015 02:30:30 ( 10.04, 163.04) 08/13/2015 02:34:05 ( 22.66, 160.04)
13 08/13/2015 15:02:23 ( 22.67, 160.25) 08/13/2015 15:05:58 ( 10.05, 157.26)
14 08/14/2015 02:14:08 ( 19.46, 165.59) 08/14/2015 02:15:03 ( 22.68, 164.79)
15 08/14/2015 03:52:57 ( 10.01, 142.43) 08/14/2015 03:56:27 ( 22.34, 139.50)
16 08/14/2015 14:43:20 ( 22.64, 165.01) 08/14/2015 14:46:55 ( 10.02, 162.01)
17 08/14/2015 16:24:49 ( 22.69, 139.64) 08/14/2015 16:24:58 ( 22.17, 139.51)
18 08/15/2015 03:33:54 ( 10.03, 147.18) 08/15/2015 03:37:29 ( 22.66, 144.18)
19 08/15/2015 16:05:47 ( 22.67, 144.40) 08/15/2015 16:09:22 ( 10.05, 141.40)
20 08/16/2015 03:14:52 ( 10.06, 151.93) 08/16/2015 03:18:27 ( 22.68, 148.94)
21 08/16/2015 15:46:45 ( 22.65, 149.15) 08/16/2015 15:50:20 ( 10.03, 146.15)
22 08/17/2015 02:55:48 ( 10.02, 156.70) 08/17/2015 02:59:23 ( 22.65, 153.70)
23 08/17/2015 15:27:41 ( 22.68, 153.92) 08/17/2015 15:31:17 ( 10.00, 150.91)
24 08/18/2015 02:36:46 ( 10.05, 161.45) 08/18/2015 02:40:21 ( 22.67, 158.46)
25 08/18/2015 15:08:39 ( 22.66, 158.67) 08/18/2015 15:12:14 ( 10.04, 155.67)
26 08/19/2015 02:18:28 ( 12.72, 165.60) 08/19/2015 02:21:18 ( 22.70, 163.21)
27 08/19/2015 03:59:12 ( 10.02, 140.84) 08/19/2015 04:00:50 ( 15.78, 139.51)
28 08/19/2015 14:49:35 ( 22.69, 163.44) 08/19/2015 14:53:11 ( 10.01, 160.43)
29 08/20/2015 03:40:10 ( 10.05, 145.60) 08/20/2015 03:43:45 ( 22.67, 142.60)
30 08/20/2015 14:33:38 ( 11.81, 165.60) 08/20/2015 14:34:08 ( 10.05, 165.19)
31 08/20/2015 16:12:03 ( 22.66, 142.81) 08/20/2015 16:15:38 ( 10.04, 139.82)
32 08/21/2015 03:21:06 ( 10.02, 150.36) 08/21/2015 03:24:42 ( 22.70, 147.35)


NCC Satellite Cal/Val Overpasses Prediction Service
